M8SEY-13 Weather Reports


time (UTC)temp
F
wind
direction
speed
knots
gust
knots
rain 1hr
in
rain 24hr
in
rain mn
in
humidity
%
barometer
mb
20260502221516 53 0.0 1.7 0.05 0.17 0.17 94 1011.5
20260502220516 53 0.0 1.7 0.04 0.15 0.15 94 1011.4
20260502215516 53 338 0.9 2.6 0.03 0.14 0.14 94 1011.4
20260502214516 53 0.0 1.7 0.04 0.14 0.14 93 1011.5
20260502213516 53 315 0.9 2.6 0.03 0.13 0.13 93 1011.4
20260502212516 53 315 0.9 2.6 0.04 0.13 0.13 93 1011.6
20260502211516 54 0.0 0.9 0.02 0.12 0.12 93 1011.6
20260502210516 54 0.0 1.7 0.03 0.11 0.11 92 1011.7
20260502205516 54 0.0 1.7 0.04 0.11 0.11 92 1011.8
20260502204516 54 0.0 1.7 0.05 0.10 0.10 91 1011.8
20260502203536 54 0.0 1.7 0.06 0.10 0.10 90 1011.9
20260502202516 55 0.0 0.9 0.06 0.09 0.09 89 1012.1
20260502201516 55 0.0 1.7 0.07 0.09 0.09 89 1012.2
20260502200516 55 0.0 0.9 0.07 0.08 0.08 88 1012.3
20260502195556 55 0.0 0.0 0.06 0.07 0.07 87 1012.4
20260502194516 56 0.0 0.0 0.05 0.06 0.06 86 1012.4
20260502193536 56 0.0 0.9 0.04 0.05 0.05 85 1012.4
20260502192516 56 0.0 0.9 0.02 0.03 0.03 84 1012.3
20260502191516 57 0.0 0.0 0.02 0.02 0.02 83 1012.2
20260502190516 57 0.0 0.9 0.00 0.01 0.01 81 1012.3
20260502185516 57 0.0 0.0 0.00 0.01 0.01 79 1012.2
20260502184516 58 0.0 0.9 0.00 0.01 0.01 78 1012.2
20260502183536 58 0 0.9 2.6 0.00 0.01 0.01 76 1012.1
20260502182516 59 315 0.9 3.5 0.00 0.01 0.01 74 1012.1
20260502181516 59 293 0.9 3.5 0.00 0.01 0.01 72 1012.1
20260502180516 61 0.0 0.9 0.00 0.01 0.01 69 1012.1
20260502163516 63 0.0 1.7 0.00 0.02 0.01 58 1012.5
20260502162516 63 0.0 1.7 0.00 0.02 0.01 58 1012.5
20260502161516 63 113 0.9 2.6 0.00 0.02 0.01 57 1012.5
20260502160516 63 113 0.9 2.6 0.00 0.02 0.01 57 1012.6
20260502151516 64 135 1.7 3.5 0.00 0.03 0.01 56 1013.2
20260502150516 64 113 0.9 2.6 0.00 0.03 0.01 56 1013.2
20260502130536 63 0.0 0.0 0.00 0.03 0.01 58 1014.5
20260502123516 64 203 0.9 2.6 0.00 0.03 0.01 59 1014.8
20260502122536 64 135 0.9 3.5 0.00 0.03 0.01 59 1015.1
20260502121515 63 90 0.9 3.5 0.00 0.03 0.01 60 1015.2
20260502120535 63 203 0.9 3.5 0.00 0.03 0.01 62 1015.2
20260502115516 63 203 1.7 6.1 0.00 0.03 0.01 61 1015.4
20260502114515 63 113 0.9 3.5 0.00 0.03 0.01 61 1015.5
20260502113515 63 113 0.9 1.7 0.00 0.03 0.01 62 1015.6
20260502112515 62 113 0.9 3.5 0.00 0.03 0.01 65 1015.7
20260502111535 61 0.0 1.7 0.00 0.03 0.01 63 1015.8
20260502110515 61 203 0.9 3.5 0.00 0.03 0.01 64 1015.8
20260502105515 62 225 0.9 2.6 0.00 0.03 0.01 64 1015.8
20260502104515 62 90 0.9 3.5 0.00 0.03 0.01 67 1016.0
20260502103515 61 0.0 1.7 0.00 0.03 0.01 69 1016.0
20260502102515 60 225 0.9 4.3 0.00 0.03 0.01 68 1016.1
20260502100535 59 203 0.9 2.6 0.00 0.03 0.01 73 1016.1
20260502091515 58 135 0.9 2.6 0.00 0.03 0.01 74 1016.8
20260502090515 58 203 0.9 2.6 0.00 0.03 0.01 75 1016.7
20260502071517 49 0.0 2.6 0.00 0.03 0.01 92 1017.4
20260502070517 49 0.0 1.7 0.00 0.03 0.01 93 1017.4
20260502065535 47 0.0 1.7 0.00 0.03 0.01 94 1017.3
20260502064517 47 0.0 1.7 0.00 0.03 0.01 95 1017.2
20260502063517 46 0.0 0.9 0.00 0.03 0.01 96 1017.2
20260502062517 45 0.0 0.9 0.00 0.03 0.01 96 1017.1
20260502061517 44 0.0 0.9 0.00 0.03 0.01 96 1017.0
20260502060517 43 0.0 0.0 0.00 0.03 0.01 95 1017.0
20260502055517 43 0.0 0.0 0.00 0.03 0.01 95 1017.0
20260502054517 43 0.0 0.9 0.00 0.03 0.01 94 1017.0
20260502053517 44 0.0 0.0 0.00 0.03 0.01 95 1017.0
20260502052517 43 0.0 0.0 0.00 0.03 0.01 96 1016.9
20260502051517 43 0.0 0.0 0.00 0.03 0.01 95 1017.0
20260502050517 43 0.0 0.0 0.00 0.03 0.01 94 1016.9
20260502045517 43 0.0 0.0 0.00 0.03 0.01 95 1017.0
20260502044517 44 0.0 0.0 0.00 0.03 0.01 95 1016.9
20260502043517 44 0.0 0.9 0.00 0.03 0.01 95 1016.8
20260502042517 44 0.0 0.9 0.00 0.03 0.01 95 1016.7
20260502041517 44 0.0 0.9 0.00 0.03 0.01 95 1016.9
20260502040517 44 0.0 0.0 0.00 0.03 0.01 95 1016.9
20260502035517 44 0.0 0.9 0.00 0.03 0.01 95 1016.9
20260502034517 44 0.0 0.0 0.00 0.03 0.01 95 1017.0
20260502033517 44 0.0 0.9 0.00 0.03 0.01 95 1017.0
20260502032517 45 0.0 0.9 0.00 0.03 0.01 95 1017.0
20260502031517 45 0.0 0.0 0.00 0.03 0.01 95 1017.1
20260502030517 44 0.0 0.0 0.00 0.03 0.01 95 1017.2
20260502025517 44 0.0 0.0 0.00 0.03 0.01 94 1017.2
20260502024516 45 0.0 0.0 0.00 0.03 0.01 94 1017.2
20260502023537 45 0.0 0.0 0.00 0.03 0.01 94 1017.3
20260502022516 45 0.0 0.0 0.00 0.03 0.01 94 1017.3
20260502021517 46 0.0 0.0 0.00 0.03 0.01 94 1017.3
20260502020537 46 0.0 0.0 0.00 0.03 0.01 94 1017.4
20260502015516 46 0.0 0.0 0.00 0.03 0.01 94 1017.6
20260502014516 46 0.0 0.0 0.00 0.03 0.01 93 1017.7
20260502013537 46 0.0 0.0 0.01 0.03 0.01 93 1017.9
20260502012517 46 0.0 0.0 0.01 0.03 0.01 93 1018.0
20260502011537 46 0.0 0.0 0.01 0.03 0.01 93 1018.0
20260502010516 47 0.0 0.0 0.01 0.03 0.01 93 1018.1
20260502005517 47 0.0 0.0 0.01 0.03 0.01 93 1018.2
20260502004516 47 0.0 0.0 0.01 0.03 0.01 93 1018.2
20260502003517 47 0.0 0.0 0.00 0.02 0.00 93 1018.2
20260502002516 47 0.0 0.0 0.00 0.02 0.00 92 1018.4
20260502001516 47 0.0 1.7 0.00 0.02 0.00 93 1018.3
20260502000516 47 203 0.9 1.7 0.00 0.02 0.00 94 1018.5
20260501235516 47 0.0 0.9 0.00 0.02 0.00 93 1018.5
20260501234516 48 0.0 0.9 0.00 0.02 0.00 94 1018.5
20260501233516 47 0.0 1.7 0.00 0.02 0.00 95 1018.5
20260501232516 47 0.0 0.9 0.00 0.02 0.00 95 1018.6
20260501231516 47 0.0 0.0 0.00 0.02 0.00 95 1018.9
20260501230516 47 0.0 0.0 0.00 0.02 0.00 95 1018.7
20260501225516 47 0.0 0.0 0.00 0.02 0.02 94 1018.7
20260501224516 47 0.0 0.0 0.00 0.02 0.02 94 1018.6
20260501223516 48 0.0 0.0 0.00 0.02 0.02 95 1018.7
20260501222516 48 0.0 0.0 0.00 0.02 0.02 95 1018.7